Change the Weather History Date:

Saturday, January 18, 2014

  Actual Average Record
Temperature  
Mean Temperature 40 °F -  
Max Temperature 51 °F 60 °F 76 °F (1979)
Min Temperature 28 °F 44 °F 11 °F (1948)
Degree Days  
Heating Degree Days 26    
Moisture  
Dew Point 27 °F    
Average Humidity 56    
Maximum Humidity 82    
Minimum Humidity 33    
Precipitation  
Precipitation 0.00 in - - ()
Sea Level Pressure  
Sea Level Pressure 30.23 in    
Wind  
Wind Speed 3 mph (SSW)    
Max Wind Speed 10 mph    
Max Gust Speed -    
Visibility 10 miles    
Events      
Averages and records for this station are not official NWS values.
T = Trace of Precipitation, MM = Missing Value Source: NWS Daily Summary

Daily Weather History Graph

Daily Weather History Graph

Search for Another Location

Airport or City:

Trip Planner

Search our weather history database for the weather conditions in past years. The results will help you decide how hot, cold, wet, or windy it might be!

Date:

Astronomy

Jan. 18, 2014 Rise Set
Actual Time 6:53 AM CST 5:20 PM CST
Civil Twilight 6:27 AM CST 5:46 PM CST
Nautical Twilight 5:57 AM CST 6:15 PM CST
Astronomical Twilight 5:29 AM CST 6:44 PM CST
Moon 7:48 PM CST (1/18) 8:05 AM CST (1/18)
Length of Visible Light 11h 19m
Length of Day
10h 27m
Waning Gibbous, 94% of the Moon is Illuminated
Jan 18
Waning Gibbous
Jan 23
Last Quarter
Jan 30
New
Feb 6
First Quarter
Feb 14
Full

Hourly Weather History & Observations

Time (CST) Temp. Windchill Dew Point Humidity Pressure Visibility Wind Dir Wind Speed Gust Speed Precip Events Conditions
12:53 AM 35.1 °F 32.2 °F 19.9 °F 54% 30.25 in 10.0 mi NNW 3.5 mph - N/A   Clear
1:53 AM 33.1 °F - 21.9 °F 64% 30.27 in 10.0 mi Calm Calm - N/A   Clear
2:53 AM 33.1 °F 30.0 °F 21.9 °F 64% 30.27 in 10.0 mi NW 3.5 mph - N/A   Clear
3:53 AM 30.0 °F - 23.0 °F 75% 30.28 in 10.0 mi Calm Calm - N/A   Clear
4:53 AM 30.0 °F - 24.1 °F 79% 30.30 in 10.0 mi Calm Calm - N/A   Clear
5:53 AM 30.0 °F - 24.1 °F 79% 30.29 in 10.0 mi Calm Calm - N/A   Clear
6:53 AM 28.9 °F - 24.1 °F 82% 30.30 in 10.0 mi Calm Calm - N/A   Clear
7:53 AM 33.1 °F - 25.0 °F 72% 30.32 in 10.0 mi Calm Calm - N/A   Clear
8:53 AM 41.0 °F - 23.0 °F 49% 30.32 in 10.0 mi Calm Calm - N/A   Clear
9:53 AM 46.0 °F 43.9 °F 21.0 °F 37% 30.33 in 10.0 mi SSE 4.6 mph - N/A   Clear
10:53 AM 48.0 °F - 21.9 °F 36% 30.31 in 10.0 mi SE 5.8 mph - N/A   Clear
11:53 AM 48.9 °F - 21.9 °F 35% 30.27 in 10.0 mi South 8.1 mph - N/A   Clear
12:53 PM 50.0 °F - 21.9 °F 33% 30.23 in 10.0 mi SSE 8.1 mph - N/A   Clear
1:53 PM 51.1 °F - 23.0 °F 33% 30.21 in 10.0 mi SSW 8.1 mph - N/A   Clear
2:53 PM 51.1 °F - 28.0 °F 41% 30.20 in 10.0 mi South 10.4 mph - N/A   Clear
3:53 PM 51.1 °F - 28.0 °F 41% 30.19 in 10.0 mi South 6.9 mph - N/A   Clear
4:53 PM 50.0 °F - 30.9 °F 48% 30.18 in 10.0 mi South 5.8 mph - N/A   Clear
5:53 PM 48.9 °F - 32.0 °F 52% 30.16 in 10.0 mi South 3.5 mph - N/A   Clear
6:53 PM 50.0 °F - 35.1 °F 57% 30.16 in 10.0 mi SSW 8.1 mph - N/A   Clear
7:53 PM 50.0 °F - 33.1 °F 52% 30.15 in 10.0 mi SSW 6.9 mph - N/A   Clear
8:53 PM 50.0 °F - 36.0 °F 59% 30.16 in 10.0 mi SW 6.9 mph - N/A   Clear
9:53 PM 48.9 °F - 37.0 °F 64% 30.15 in 10.0 mi SW 3.5 mph - N/A   Clear
10:53 PM 48.0 °F - 39.0 °F 71% 30.14 in 10.0 mi SW 3.5 mph - N/A   Clear
11:53 PM 50.0 °F - 42.1 °F 74% 30.12 in 10.0 mi SSW 4.6 mph - N/A   Clear